Regional Weather Roundup
Issued by NWS

Home | Current Version | Previous Version | Text Only | Print | Product List | Glossary Off
Versions: 1 2 3 4 5 6 7 8 9 10 11 12 13 14 15 16 17 18 19 20 21 22 23 24 25 26 27 28 29 30 31 32 33 34 35 36 37 38 39 40 41 42 43 44 45 46 47 48 49 50

000
ASUS43 KMKX 300211
RWRWI

WISCONSIN REGIONAL WEATHER ROUNDUP
NATIONAL WEATHER SERVICE MILWAUKEE/SULLIVAN WI
900 PM CDT SAT AUG 29 2015

NOTE: "FAIR" INDICATES FEW OR NO CLOUDS BELOW 12,000 FEET WITH NO
SIGNIFICANT WEATHER AND/OR OBSTRUCTIONS TO VISIBILITY.

WIZ001-002-006>008-014>016-023>028-300300-
NORTHWEST WISCONSIN

CITY           SKY/WX    TMP DP  RH WIND       PRES   REMARKS
SUPERIOR ARPT  PTCLDY    67  64  88 CALM      29.98R
ASHLAND        MOCLDY    65  64  97 S5        30.00R
HAYWARD        PTCLDY    66  62  87 SW3       30.02S
SIREN          CLEAR     65  62  90 S5        30.02S
CUMBERLAND     MOCLDY    61  61 100 S5        30.04R
RICE LAKE      MOCLDY    63  60  90 S5        30.05S
CHETEK         MOCLDY   N/A N/A N/A MISG      30.04S
LADYSMITH      PTCLDY    63  61  93 CALM      30.06R
EAU CLAIRE     PTCLDY    63  60  90 CALM      30.03S
MENOMONIE      PTCLDY    64  62  94 E3        30.03S
NEW RICHMOND   CLEAR     63  62  98 CALM      30.03S
OSCEOLA        PTCLDY    63  63 100 S3        30.05R
$$

WIZ003>005-009-010-017-018-300300-
NORTH CENTRAL WISCONSIN

CITY           SKY/WX    TMP DP  RH WIND       PRES   REMARKS
MANITOWISH WTR PTCLDY    62  62  98 CALM      30.04R
ARBOR VITAE    CLEAR     64  61  90 SW5       30.05R
WOODRUFF       CLEAR     64  61  90 SW5       30.05R
RHINELANDER    CLEAR     64  60  87 SW6       30.07R
EAGLE RIVER    CLEAR     63  57  81 SW3       30.05R
LAND O LAKES   CLEAR     64  59  83 CALM      30.05S
PHILLIPS       CLEAR     64  62  91 SW5       30.04S
TOMAHAWK       PTCLDY    60  58  94 CALM      30.06S FOG
MEDFORD        CLEAR     57  57  99 S6        30.06S
MERRILL        PTCLDY    60  60  99 CALM      30.07S
$$

WIZ029-030-035-036-043>047-300300-
CENTRAL WISCONSIN

CITY           SKY/WX    TMP DP  RH WIND       PRES   REMARKS
WAUSAU         CLEAR     62  59  90 S5        30.05R
MOSINEE        NOT AVBL
MARSHFIELD     CLOUDY    64  58  80 CALM      30.07R
STEVENS POINT  CLOUDY    61  59  92 CALM      30.08R
WAUPACA        MOCLDY    65  64  93 CALM      30.06R
WAUTOMA        CLOUDY    66  64  93 CALM      30.07R
WISC RAPIDS    CLOUDY    65  59  81 E6        30.08R
CAMP DOUGLAS   CLOUDY    65  65 100 CALM      30.05S
$$

WIZ011>013-019>022-031-037>040-048>050-300300-
NORTHEAST WISCONSIN

CITY           SKY/WX    TMP DP  RH WIND       PRES   REMARKS
ANTIGO         CLEAR     58  58  99 SW3       30.08R
SHAWANO        FOG       62  60  93 CALM      30.06R VSB 1/2
OCONTO         PTCLDY    58  58 100 CALM      30.05R VSB 3/4
STURGEON BAY   CLEAR     61  57  88 S6        30.08R
GREEN BAY      CLOUDY    65  62  90 CALM      30.06R
MANITOWOC      FOG       57  57 100 MISG      30.07R VSB 1
APPLETON       CLOUDY    66  61  82 VRB5      30.04R
CLINTONVILLE   CLEAR     63  61  94 CALM      30.06R
OSHKOSH        CLOUDY    66  63  90 CALM      30.06R
$$

WIZ032>034-041-042-053>061-300300-
SOUTHWEST WISCONSIN

CITY           SKY/WX    TMP DP  RH WIND       PRES   REMARKS
LA CROSSE      CLOUDY    68  60  75 SE7       30.04S
SPARTA         CLOUDY    66  59  79 CALM      30.06S
VIROQUA          N/A     65  64  99 SE5       30.06S
BOSCOBEL       CLOUDY    68  64  87 N3        30.05R
PRAIRIE DU CHI CLOUDY    67  62  82 E3        30.05R
PLATTEVILLE    CLOUDY    67  64  90 NE3       30.07R
$$

WIZ056-057-062-063-064-067-068-300300-
SOUTH CENTRAL WISCONSIN

CITY           SKY/WX    TMP DP  RH WIND       PRES   REMARKS
REEDSBURG      CLOUDY    66  63  90 CALM      30.06S
BARABOO/DELLS  CLOUDY    66  61  84 CALM      30.06S
LONE ROCK      CLOUDY    67  63  87 NE3       30.06R
MINERAL POINT  CLOUDY    68  64  88 CALM      30.07R
MADISON        CLOUDY    65  62  90 CALM      30.06R
MIDDLETON      CLOUDY    66  65  97 CALM      30.07R
WATERTOWN      CLOUDY    64  64 100 E3        30.06R
MONROE         CLOUDY    64  63  94 CALM      30.06R
JANESVILLE     CLOUDY    66  64  94 CALM      30.04R
$$

WIZ051-052-058>065-066-070>072-300300-
SOUTHEAST WISCONSIN

CITY           SKY/WX    TMP DP  RH WIND       PRES   REMARKS
MILWAUKEE      DRZL/FOG  62  61  96 N7        30.04S VSB 1/2
WAUKESHA       CLOUDY    61  61 100 N3        30.06S FOG
MILWAUKEE/TIMM CLOUDY    63  59  88 N5        30.06R FOG
RACINE         CLOUDY    62  60  93 N9        30.06R FOG
BURLINGTON     CLOUDY    61  61  99 N5        30.05R FOG
KENOSHA        FOG       63  62  97 N5        30.04R VSB 1/2
FOND DU LAC    CLOUDY    66  64  93 SE3       30.06R
SHEBOYGAN      CLOUDY    63  62  97 CALM      30.07R
WEST BEND      CLOUDY    63  59  88 CALM      30.07R
JUNEAU         CLOUDY    64  62  93 CALM      30.08R
$$

LSZ147-162-300300-
LAKE SUPERIOR

STATION/POSITION TIME  TEMP    WIND        PRES    WAVE
                       AIR SEA DIR/SP/G            HT/PER
                 (UTC) (F)     (DEG/KT/KT) (MB)    (FT/S)
W MID LAKE BUOY  0150   59 54  190/  6/  6 1015.1R   1
DEVILS ISLAND    0200   68     210/  6/  6 1015.0R
PORT WING        0140   69     160/  2/  3 1015.2R
SAXON HARBOR     0140   66      CALM  /  3 1014.9S
$$

LMZ867-665-643>646-300300-
LAKE MICHIGAN

STATION/POSITION TIME  TEMP    WIND        PRES    WAVE
                       AIR SEA DIR/SP/G            HT/PER
                 (UTC) (F)     (DEG/KT/KT) (MB)    (FT/S)
CHAMBERS ISLAND  0100   64     170/  3/  6 1016.9R
S GREEN BAY BUOY 0200   64 62  150/  8/ 10 1019.0R
N MID LAKE BUOY  0150   64 65  190/ 10/ 10 1017.1R   1
NORTHPORT PIER   0200   62     190/  2/  7 1017.6R
SISTER BAY       0104   63     150/  7/  8   N/A
ALGOMA LAKESHORE 0114             CALM       N/A
SHEBOYGAN LAKESH 0200   59        CALM     1018.5R
PORT WASHINGTON  0100   61      20/  2/  5 1017.9S
ATWATER BUOY     0200   53 50  350/  6/  8 1018.8R
MILWAUKEE LAKESH 0100   61     350/  5/  6   N/A
S MID LAKE BUOY  0050   68 68  140/  4/  6 1016.1R   1/ 3
KENOSHA   LAKESH 0200   63     350/  9/ 10 1016.9R
$$

TC  - TEMPERATURE IN CELSIUS
VSB - VISIBILITY IN STATUTE MILES
WCI - WIND CHILL INDEX
HX  - HEAT INDEX



USA.gov is the U.S. government's official web portal to all federal, state and local government web resources and services.